Home > Weather > San Diego > Past weeks

Flag for USA Past Weather in San Diego, California, USA — Yesterday and Last 2 Weeks

Now
64 °F

Partly sunny.


Feels Like: 64 °F
Forecast: 67 / 73 °F
Wind: 8 mph from Southwest

Location: San Diego - North Island

Current Time: Jun 30, 2016 at 5:59:14 PM

Latest Report: Jun 30, 2016 at 4:52 PM


Visibility: 10 mi

Pressure: 29.84 "Hg

Humidity: 87%

Dew Point: 60 °F

Location of San DiegoLocation

Past Weather in San Diego — Graph

°F

San Diego Temperature Yesterday

Maximum temperature yesterday: 71 °F (at 11:52 AM)
Minimum temperature yesterday: 61 °F (at 9:52 PM)
Average temperature yesterday: 65 °F

High & Low Weather Summary for the Past Weeks

 TemperatureHumidityPressure
High82 °F (Jun 20, 9:52 AM)100% (Jun 24, 12:52 AM)30.03 "Hg (Jun 24, 12:52 AM)
Low58 °F (Jun 26, 3:52 AM)44% (Jun 19, 11:52 AM)29.81 "Hg (Jun 20, 4:52 AM)
Average66 °F83%29.92 "Hg
* Reported Jun 15 4:52 PM — Jun 30 4:52 PM, San Diego, Weather by CustomWeather, © 2016

Note: Actual official high and low records may vary slightly from our data, if they occured in-between our weather recording intervals... More about our weather records

Advertising

San Diego Weather History for the Previous 24 Hours

Scroll right to see more
 ConditionsComfort  
Time TempWeatherWind HumidityBarometerVisibility
4:52 PM
Thu, Jun 30
64 °FPartly sunny.8 mph87%29.84 "Hg10 mi
3:52 PM65 °FPartly sunny.9 mph85%29.87 "Hg10 mi
2:52 PM65 °FPartly sunny.7 mph85%29.88 "Hg10 mi
1:52 PM64 °FPartly sunny.9 mph87%29.89 "Hg10 mi
12:52 PM65 °FOvercast.9 mph87%29.89 "Hg9 mi
11:52 AM65 °FOvercast.8 mph87%29.90 "Hg10 mi
10:52 AM63 °FOvercast.8 mph93%29.90 "Hg9 mi
9:52 AM62 °FFog.5 mph96%29.89 "Hg6 mi
8:52 AM62 °FFog.3 mph96%29.90 "Hg5 mi
7:52 AM61 °FFog.5 mph100%29.88 "Hg6 mi
6:52 AM60 °FLow clouds.5 mph100%29.88 "Hg7 mi
5:52 AM60 °FLow clouds.No wind100%29.86 "Hg8 mi
4:52 AM60 °FLow clouds.3 mph100%29.85 "Hg8 mi
3:52 AM60 °FLow clouds.5 mph100%29.85 "Hg8 mi
2:52 AM61 °FLow clouds.No wind100%29.85 "Hg8 mi
1:52 AM60 °FLow clouds.No wind100%29.86 "Hg7 mi
12:52 AM61 °FLow clouds.7 mph100%29.87 "Hg7 mi
11:52 PM
Wed, Jun 29
61 °FLow clouds.7 mph100%29.88 "Hg7 mi
10:52 PM61 °FPassing clouds.7 mph100%29.89 "Hg7 mi
9:52 PM61 °FPassing clouds.6 mph100%29.89 "Hg7 mi
8:52 PM62 °FPartly sunny.6 mph96%29.88 "Hg7 mi
7:52 PM63 °FPassing clouds.7 mph93%29.86 "Hg8 mi
6:52 PM65 °FScattered clouds.6 mph87%29.86 "Hg10 mi
5:52 PM65 °FScattered clouds.8 mph91%29.85 "Hg10 mi
Weather by CustomWeather, © 2016

See weather overviewHow to use our weather pages